EW5998 Weather Reports


time (UTC)temp
C
wind
direction
speed
KPH
gust
KPH
rain 1hr
cm
rain 24hr
cm
rain mn
cm
humidity
%
barometer
mb
20260504041951 6 206 0.0 8.0 0.00 0.00 0.00 78 1006.8
20260504034952 6 173 3.2 9.7 0.00 0.00 0.00 75 1006.7
20260504031950 6 165 3.2 8.0 0.00 0.00 0.00 74 1006.8
20260504024950 6 168 3.2 8.0 0.00 0.00 0.00 71 1006.8
20260504021949 7 161 3.2 11.3 0.00 0.00 0.00 70 1007.3
20260504020344 8 166 4.8 11.3 0.00 0.00 0.00 68 1007.2
20260504011949 8 209 6.4 19.3 0.00 0.00 0.00 65 1007.2
20260504011746 9 268 6.4 25.7 0.00 0.00 0.00 61 1006.9
20260504001949 10 247 11.3 29.0 0.00 0.00 0.00 55 1006.8
20260503234949 10 209 6.4 19.3 0.00 0.00 0.00 47 1006.6
20260503233340 11 140 8.0 17.7 0.00 0.00 0.00 44 1006.7
20260503224949 11 223 9.7 22.5 0.00 0.00 0.00 43 1006.7
20260503221948 12 229 9.7 22.5 0.00 0.00 0.00 42 1006.5
20260503214948 12 202 12.9 29.0 0.00 0.00 0.00 43 1006.7
20260503211949 12 221 14.5 27.4 0.00 0.00 0.00 42 1006.7
20260503204950 13 224 11.3 25.7 0.00 0.00 0.00 41 1006.8
20260503201956 12 248 11.3 25.7 0.00 0.00 0.00 38 1007.0
20260503200328 12 206 9.7 24.1 0.00 0.00 0.00 38 1007.3
20260503191942 12 278 12.9 25.7 0.00 0.00 0.00 33 1007.9
20260503184942 12 295 9.7 22.5 0.00 0.00 0.00 33 1008.1
20260503181937 12 258 11.3 30.6 0.00 0.00 0.00 36 1008.6
20260503174936 11 279 11.3 24.1 0.00 0.00 0.00 34 1008.9
20260503171937 11 243 11.3 24.1 0.00 0.00 0.00 38 1009.2
20260503130331 5 274 8.0 17.7 0.00 0.00 0.00 60 1011.9
20260503110323 2 273 3.2 12.9 0.00 0.00 0.00 72 1011.5
20260503071928 3 240 1.6 3.2 0.00 0.00 0.00 70 1011.7
20260503054933 4 233 1.6 8.0 0.00 0.00 0.00 65 1011.9
20260503051927 5 264 1.6 8.0 0.00 0.00 0.00 65 1012.1
20260503044927 5 281 4.8 11.3 0.00 0.00 0.00 65 1012.3